Location: West Sayville
(40.7279°N, 73.0976°W)
Time: 08:26:15
(UTC+00:00)

CZ-4B R/B - Pass Details

Date: 29 October 2020
Orbit: 388 x 461 km, 97.6° (Epoch: 03 December)

Event Time Altitude Azimuth Distance (km) Brightness Sun altitude
Rises 23:21:58 0° 353° (N) 2,374 5.1 -17.6°
Reaches altitude 10° 23:24:33 10° 331° (NNW) 1,488 4.4 -18.1°
Maximum altitude 23:26:31 16° 292° (WNW) 1,183 4.4 -18.5°
Drops below altitude 10° 23:28:26 10° 254° (WSW) 1,458 5.1 -18.8°
Sets 23:30:56 0° 230° (SW) 2,297 5.8 -19.3°
